DW3735 Weather Reports


Display with metric or nautical units.
time (UTC)temp
F
wind
direction
speed
MPH
gust
MPH
rain 1hr
in
rain 24hr
in
rain mn
in
humidity
%
barometer
mb
20260904115518 61 0.0 0.0 0.00 0.02 0.00 97 1012.8
20260904114517 61 0.0 0.0 0.00 0.02 0.00 97 1012.6
20260904113518 61 0.0 0.0 0.00 0.02 0.00 97 1012.5
20260904112538 61 0.0 0.0 0.00 0.02 0.00 97 1012.4
20260904111537 61 0.0 0.0 0.00 0.02 0.00 97 1012.3
20260904110537 61 0.0 0.0 0.00 0.02 0.00 97 1012.4
20260904105538 61 0.0 0.0 0.00 0.02 0.00 97 1012.4
20260904104517 61 0.0 0.0 0.00 0.02 0.00 97 1012.3
20260904103518 61 0.0 0.0 0.00 0.02 0.00 97 1012.1
20260904102517 61 0.0 0.0 0.00 0.02 0.00 97 1012.1
20260904101517 61 0.0 0.0 0.00 0.02 0.00 97 1012.1
20260904100517 61 0.0 0.0 0.00 0.02 0.00 97 1012.0
20260904095538 61 0.0 0.0 0.00 0.02 0.00 97 1012.0
20260904094517 61 0.0 0.0 0.00 0.02 0.00 97 1011.8
20260904093539 61 0.0 0.0 0.00 0.02 0.00 97 1011.7
20260904092537 61 0.0 0.0 0.00 0.02 0.00 97 1011.8
20260904091518 61 0.0 0.0 0.00 0.02 0.00 97 1011.6
20260904090517 61 0.0 0.0 0.00 0.02 0.00 97 1011.6
20260904085538 61 0.0 0.0 0.00 0.02 0.00 97 1011.6
20260904084517 61 0.0 0.0 0.00 0.02 0.00 97 1011.5
20260904083519 61 0.0 0.0 0.00 0.02 0.00 97 1011.5
20260904082515 61 0.0 0.0 0.00 0.02 0.00 96 1011.6
20260904081538 61 0.0 0.0 0.00 0.02 0.00 97 1011.6
20260904080517 62 0.0 0.0 0.00 0.02 0.00 97 1011.6
20260904075517 62 0.0 0.0 0.00 0.02 0.00 97 1011.6
20260904074537 62 0.0 0.0 0.00 0.02 0.00 97 1011.7
20260904073539 62 0.0 0.0 0.00 0.02 0.00 97 1011.6
20260904072517 62 0.0 0.0 0.00 0.02 0.00 97 1011.6
20260904071517 63 0.0 0.0 0.00 0.02 0.00 97 1011.7
20260904070517 63 0.0 0.0 0.00 0.02 0.00 97 1011.8
20260904065518 63 0.0 0.0 0.00 0.02 0.00 97 1011.7
20260904064518 63 0.0 0.0 0.00 0.02 0.00 97 1011.6
20260904063517 63 0.0 0.0 0.00 0.02 0.00 97 1011.8
20260904062518 63 0.0 0.0 0.00 0.02 0.00 97 1011.9
20260904061517 63 0.0 0.0 0.00 0.02 0.00 97 1012.0
20260904060517 63 0.0 0.0 0.00 0.02 0.00 97 1011.9
20260904055518 63 0.0 0.0 0.00 0.02 0.00 97 1011.9
20260904054517 63 0.0 0.0 0.00 0.02 0.00 97 1011.7
20260904053518 63 0.0 0.0 0.00 0.02 0.00 97 1011.8
20260904052517 63 0.0 0.0 0.00 0.02 0.00 97 1011.8
20260904051518 63 0.0 0.0 0.00 0.02 0.00 97 1012.0
20260904050515 63 0.0 0.0 0.00 0.02 0.00 97 1012.0
20260904045518 63 0.0 0.0 0.00 0.02 0.00 96 1012.0
20260904044517 63 0.0 0.0 0.00 0.02 0.00 96 1011.9
20260904043518 63 0.0 0.0 0.00 0.02 0.00 96 1011.9
20260904042517 63 0.0 0.0 0.00 0.02 0.00 96 1011.9
20260904041518 63 0.0 0.0 0.00 0.02 0.00 96 1011.8
20260904040517 64 0.0 0.0 0.00 0.02 0.00 96 1011.9
20260904035515 64 0.0 0.0 0.00 0.02 0.02 96 1011.9
20260904034556 64 0.0 0.0 0.00 0.02 0.02 96 1011.8
20260904033515 64 0.0 0.0 0.00 0.02 0.02 96 1011.7
20260904032535 64 0.0 0.0 0.00 0.02 0.02 96 1011.8
20260904031516 65 0.0 0.0 0.00 0.02 0.02 96 1011.8
20260904030516 65 0.0 0.0 0.00 0.02 0.02 96 1011.9
20260904025515 65 0.0 0.0 0.00 0.02 0.02 96 1011.9
20260904024516 65 0.0 0.0 0.00 0.02 0.02 96 1011.9
20260904023515 65 0.0 0.0 0.00 0.02 0.02 96 1011.9
20260904022516 65 0.0 0.0 0.00 0.02 0.02 96 1011.8
20260904021515 65 0.0 0.0 0.00 0.02 0.02 96 1011.9
20260904020556 65 0.0 0.0 0.00 0.02 0.02 95 1012.0
20260904015515 66 0.0 0.0 0.00 0.02 0.02 94 1012.0
20260904014516 66 0.0 0.0 0.00 0.02 0.02 94 1012.0
20260904013516 66 0.0 0.0 0.00 0.02 0.02 93 1011.9
20260904012515 66 0.0 0.0 0.00 0.02 0.02 94 1011.8
20260904011515 66 0.0 0.0 0.00 0.02 0.02 94 1011.7
20260904010516 66 0.0 0.0 0.00 0.02 0.02 95 1011.6
20260904005517 67 0.0 0.0 0.00 0.02 0.02 95 1011.7
20260904004516 67 0.0 0.0 0.00 0.02 0.02 94 1011.4
20260904003517 67 0.0 0.0 0.00 0.02 0.02 94 1011.3
20260904002516 67 0.0 0.0 0.00 0.02 0.02 93 1011.1
20260904001516 67 0.0 0.0 0.00 0.02 0.02 91 1011.0
20260904000515 68 0.0 0.0 0.00 0.02 0.02 90 1010.9
20260903235516 68 0.0 0.0 0.00 0.02 0.02 91 1010.9
20260903234516 68 0.0 0.0 0.00 0.02 0.02 90 1010.7
20260903233515 69 0.0 0.0 0.00 0.02 0.02 89 1010.6
20260903232516 69 0.0 0.0 0.00 0.03 0.02 89 1010.5
20260903231515 70 0.0 0.0 0.00 0.05 0.02 90 1010.5
20260903230515 70 0.0 0.0 0.00 0.13 0.02 89 1010.6
20260903225515 71 0.0 0.0 0.00 0.43 0.02 90 1010.9
20260903224516 71 0.0 0.0 0.00 0.57 0.02 90 1010.8
20260903223516 71 0.0 0.0 0.00 0.82 0.02 90 1010.8
20260903222516 71 0.0 0.0 0.00 1.06 0.02 90 1010.7
20260903221516 71 0.0 0.0 0.00 1.09 0.02 90 1010.7
20260903220515 70 0.0 0.0 0.00 1.12 0.02 89 1010.7
20260903215515 70 0.0 0.0 0.00 1.21 0.02 89 1010.7
20260903214516 70 0.0 0.0 0.00 1.28 0.02 89 1010.5
20260903213536 70 0.0 0.0 0.00 1.29 0.02 89 1010.8
20260903212515 70 0.0 0.0 0.00 1.29 0.02 89 1010.8
20260903211535 70 0.0 0.0 0.00 1.29 0.02 89 1011.0
20260903210516 70 0.0 0.0 0.00 1.29 0.02 89 1011.0
20260903205516 69 0.0 0.0 0.00 1.29 0.02 90 1011.2
20260903204616 69 0.0 0.0 0.00 1.29 0.02 89 1011.0
20260903203516 69 0.0 0.0 0.01 1.29 0.02 88 1010.9
20260903202535 69 0.0 0.0 0.02 1.29 0.02 88 1010.8
20260903201556 69 0.0 0.0 0.02 1.29 0.02 86 1010.6
20260903200515 69 0.0 0.0 0.02 1.29 0.02 87 1010.7
20260903195516 69 0.0 1.0 0.02 1.29 0.02 87 1010.8
20260903194515 69 0.0 0.0 0.02 1.29 0.02 86 1010.8
20260903193516 70 0.0 2.0 0.02 1.28 0.02 84 1011.1
20260903192517 72 315 2.0 8.0 0.00 1.27 0.00 81 1011.1
20260903191516 74 68 2.0 5.0 0.00 1.27 0.00 79 1010.9
20260903190515 75 0.0 0.0 0.00 1.27 0.00 78 1010.7
20260903185516 75 0.0 0.0 0.00 1.27 0.00 77 1010.6
20260903184516 75 0.0 0.0 0.00 1.27 0.00 77 1010.7
20260903183516 75 0.0 0.0 0.00 1.27 0.00 78 1010.8
20260903182516 74 0.0 0.0 0.00 1.27 0.00 79 1010.8
20260903181516 74 0.0 0.0 0.00 1.27 0.00 81 1010.9
20260903180516 73 0.0 0.0 0.00 1.27 0.00 83 1010.9
20260903175516 74 0.0 1.0 0.00 1.27 0.00 82 1010.9
20260903174515 74 0.0 1.0 0.00 1.27 0.00 82 1011.1
20260903173516 74 0.0 1.0 0.00 1.27 0.00 83 1011.1
20260903172515 74 158 1.0 3.0 0.00 1.27 0.00 85 1011.0
20260903171516 73 0.0 2.0 0.00 1.27 0.00 84 1011.1
20260903170515 73 158 1.0 3.0 0.00 1.27 0.00 86 1011.0
20260903165516 73 0.0 2.0 0.00 1.27 0.00 87 1011.2
20260903164516 72 0.0 1.0 0.00 1.27 0.00 88 1011.3
20260903163515 71 0.0 2.0 0.00 1.27 0.00 88 1011.3
20260903162515 71 0.0 2.0 0.00 1.27 0.00 89 1011.3
20260903161515 71 0.0 2.0 0.00 1.27 0.00 89 1011.4
20260903160515 70 0.0 0.0 0.00 1.27 0.00 92 1011.5
20260903155516 69 0.0 0.0 0.00 1.27 0.00 93 1011.5
20260903154516 68 0.0 0.0 0.00 1.27 0.00 94 1011.5
20260903153516 68 0.0 0.0 0.00 1.27 0.00 94 1011.6
20260903152516 67 0.0 0.0 0.00 1.27 0.00 95 1011.6
20260903151515 66 0.0 0.0 0.00 1.27 0.00 96 1011.6
20260903150515 66 0.0 0.0 0.00 1.27 0.00 97 1011.6
20260903145515 66 0.0 0.0 0.00 1.27 0.00 97 1011.5
20260903144516 65 0.0 0.0 0.00 1.27 0.00 97 1011.4
20260903143516 65 0.0 0.0 0.00 1.27 0.00 97 1011.4
20260903142536 65 0.0 0.0 0.00 1.27 0.00 97 1011.3
20260903141536 65 0.0 0.0 0.00 1.27 0.00 97 1011.1
20260903140516 65 0.0 0.0 0.00 1.27 0.00 97 1011.1
20260903135516 64 0.0 0.0 0.00 1.27 0.00 97 1011.1
20260903134536 64 0.0 0.0 0.00 1.27 0.00 97 1011.1
20260903133516 64 0.0 0.0 0.00 1.27 0.00 97 1011.0
20260903132516 64 0.0 0.0 0.00 1.27 0.00 97 1011.0
20260903131536 64 0.0 0.0 0.00 1.27 0.00 97 1011.0
20260903130516 64 0.0 0.0 0.00 1.27 0.00 97 1010.9
20260903125516 64 0.0 0.0 0.00 1.27 0.00 97 1011.0
20260903124516 64 0.0 1.0 0.00 1.27 0.00 97 1011.0
20260903123536 64 0.0 0.0 0.00 1.27 0.00 97 1010.9
20260903122516 64 0.0 0.0 0.00 1.27 0.00 97 1010.9
20260903121517 64 0.0 0.0 0.00 1.27 0.00 97 1011.0
20260903120516 64 0.0 0.0 0.00 1.27 0.00 97 1011.0